Location: Colle Santa Colomba
(42.0333°N, 12.5667°E)
Time: 21:37:26
(UTC+00:00)

Cosmos 1825 Rocket - Pass Details

Date: 25 October 2021
Orbit: 604 x 630 km, 82.5° (Epoch: 05 December)

Event Time Altitude Azimuth Distance (km) Brightness Sun altitude
Rises 18:25:30 0° 349° (N) 2,870 7.2 -25.2°
Reaches altitude 10° 18:27:44 10° 347° (NNW) 1,960 6.3 -25.6°
Enters shadow 18:31:20 57° 319° (NW) 715 4.0 -26.3°
